contact:dominique.lefevre@mio.osupytheas.fr, maurice.libes@osupytheas.fr, didier.mallarino@osupytheas.fr
Project:EMSO http://www.emso-fr.org/EMSO-France
Depth: 2436.0 m
Title:EMSO Ligure Ouest : Data MII capteur CSTAR
DateTime,Latitude,Longitude,Instrument_Serial,Reference_Counts,Signal_Counts,Corrected_Signal_raw_counts,Calculated_Beam_c_inverse_meters,Internal_thermistor_counts
DateTime,Latitude,Longitude,Instrument_Serial,Reference_Counts,Signal_Counts,Corrected_Signal_raw_counts,Calculated_Beam_c_inverse_meters,Internal_thermistor_counts
2019-08-25T00:00:59,42.805,6.029,CST-1368DR,8188,11462,15414,0.052,551
2019-08-25T00:04:01,42.805,6.029,CST-1368DR,8188,11462,15414,0.052,550
2019-08-25T00:07:02,42.805,6.029,CST-1368DR,8188,11456,15407,0.054,551
2019-08-25T00:10:04,42.805,6.029,CST-1368DR,8188,11453,15402,0.055,551
2019-08-25T00:13:06,42.805,6.029,CST-1368DR,8187,11284,15177,0.114,551
2019-08-25T00:16:07,42.805,6.029,CST-1368DR,8188,11463,15416,0.052,551
2019-08-25T00:19:09,42.805,6.029,CST-1368DR,8188,11463,15416,0.052,551
2019-08-25T00:22:11,42.805,6.029,CST-1368DR,8188,11459,15411,0.053,551
2019-08-25T00:25:12,42.805,6.029,CST-1368DR,8188,11463,15416,0.052,551
2019-08-25T00:28:14,42.805,6.029,CST-1368DR,8188,11464,15417,0.051,551
2019-08-25T00:31:16,42.805,6.029,CST-1368DR,8186,11285,15180,0.113,551
2019-08-25T00:34:17,42.805,6.029,CST-1368DR,8188,11460,15412,0.053,551
2019-08-25T00:37:19,42.805,6.029,CST-1368DR,8188,11463,15416,0.052,551
2019-08-25T00:40:20,42.805,6.029,CST-1368DR,8188,11460,15412,0.053,551
2019-08-25T00:43:22,42.805,6.029,CST-1368DR,8188,11461,15413,0.052,551
2019-08-25T00:46:24,42.805,6.029,CST-1368DR,8188,11455,15406,0.054,550
2019-08-25T00:49:25,42.805,6.029,CST-1368DR,8188,11462,15414,0.052,551
2019-08-25T00:52:27,42.805,6.029,CST-1368DR,8188,11459,15410,0.053,551
2019-08-25T00:55:29,42.805,6.029,CST-1368DR,8188,11463,15416,0.052,551
2019-08-25T00:58:30,42.805,6.029,CST-1368DR,8188,11462,15414,0.052,551
2019-08-25T01:01:32,42.805,6.029,CST-1368DR,8188,11462,15415,0.052,551
2019-08-25T01:04:34,42.805,6.029,CST-1368DR,8188,11462,15414,0.052,551
2019-08-25T01:07:35,42.805,6.029,CST-1368DR,8187,11456,15409,0.053,550
2019-08-25T01:10:37,42.805,6.029,CST-1368DR,8187,11458,15411,0.053,551
2019-08-25T01:13:39,42.805,6.029,CST-1368DR,8187,11459,15412,0.053,551
2019-08-25T01:16:40,42.805,6.029,CST-1368DR,8187,11461,15415,0.052,551
2019-08-25T01:19:42,42.805,6.029,CST-1368DR,8187,11450,15400,0.056,550
2019-08-25T01:22:43,42.805,6.029,CST-1368DR,8187,11461,15415,0.052,551
2019-08-25T01:25:45,42.805,6.029,CST-1368DR,8187,11462,15416,0.052,550
2019-08-25T01:28:47,42.805,6.029,CST-1368DR,8187,11458,15411,0.053,551
2019-08-25T01:31:48,42.805,6.029,CST-1368DR,8187,11457,15410,0.053,551
2019-08-25T01:34:50,42.805,6.029,CST-1368DR,8187,11458,15411,0.053,551
2019-08-25T01:37:52,42.805,6.029,CST-1368DR,8187,11459,15412,0.053,550
2019-08-25T01:40:53,42.805,6.029,CST-1368DR,8187,11462,15416,0.052,550
2019-08-25T01:43:55,42.805,6.029,CST-1368DR,8187,11460,15413,0.052,551
2019-08-25T01:46:56,42.805,6.029,CST-1368DR,8187,11456,15408,0.054,551
2019-08-25T01:49:58,42.805,6.029,CST-1368DR,8187,11461,15414,0.052,551
2019-08-25T01:53:00,42.805,6.029,CST-1368DR,8187,11461,15414,0.052,551
2019-08-25T01:56:01,42.805,6.029,CST-1368DR,8187,11462,15416,0.052,551
2019-08-25T01:59:03,42.805,6.029,CST-1368DR,8187,11460,15413,0.052,550
2019-08-25T02:02:05,42.805,6.029,CST-1368DR,8187,11459,15412,0.053,550
2019-08-25T02:05:06,42.805,6.029,CST-1368DR,8187,11459,15413,0.052,551
2019-08-25T02:08:08,42.805,6.029,CST-1368DR,8187,11459,15413,0.052,551
2019-08-25T02:11:09,42.805,6.029,CST-1368DR,8187,11459,15412,0.053,550
2019-08-25T02:14:11,42.805,6.029,CST-1368DR,8187,11459,15413,0.052,551
2019-08-25T02:17:13,42.805,6.029,CST-1368DR,8187,11460,15414,0.052,550
2019-08-25T02:20:14,42.805,6.029,CST-1368DR,8187,11455,15407,0.054,551
2019-08-25T02:23:16,42.805,6.029,CST-1368DR,8187,11458,15411,0.053,551
2019-08-25T02:26:17,42.805,6.029,CST-1368DR,8187,11459,15412,0.053,550
2019-08-25T02:29:19,42.805,6.029,CST-1368DR,8187,11463,15417,0.051,551
2019-08-25T02:32:21,42.805,6.029,CST-1368DR,8187,11459,15413,0.052,551
2019-08-25T02:35:22,42.805,6.029,CST-1368DR,8187,11457,15410,0.053,551
2019-08-25T02:38:24,42.805,6.029,CST-1368DR,8187,11460,15414,0.052,551
2019-08-25T02:41:26,42.805,6.029,CST-1368DR,8187,11457,15409,0.053,551
2019-08-25T02:44:27,42.805,6.029,CST-1368DR,8187,11458,15411,0.053,551
2019-08-25T02:47:29,42.805,6.029,CST-1368DR,8187,11459,15412,0.053,551
2019-08-25T02:50:31,42.805,6.029,CST-1368DR,8187,11454,15406,0.054,551
2019-08-25T02:53:32,42.805,6.029,CST-1368DR,8187,11459,15412,0.053,551
2019-08-25T02:56:34,42.805,6.029,CST-1368DR,8187,11460,15413,0.052,551
2019-08-25T02:59:36,42.805,6.029,CST-1368DR,8187,11455,15407,0.054,551
2019-08-25T03:02:37,42.805,6.029,CST-1368DR,8187,11460,15414,0.052,551
2019-08-25T03:05:39,42.805,6.029,CST-1368DR,8187,11453,15404,0.055,550
2019-08-25T03:08:40,42.805,6.029,CST-1368DR,8187,11460,15413,0.052,550
2019-08-25T03:11:42,42.805,6.029,CST-1368DR,8187,11460,15413,0.052,550
2019-08-25T03:14:44,42.805,6.029,CST-1368DR,8186,11457,15411,0.053,551
2019-08-25T03:17:45,42.805,6.029,CST-1368DR,8186,11455,15408,0.054,550
2019-08-25T03:20:47,42.805,6.029,CST-1368DR,8186,11460,15415,0.052,550
2019-08-25T03:23:49,42.805,6.029,CST-1368DR,8186,11461,15417,0.051,551
2019-08-25T03:26:50,42.805,6.029,CST-1368DR,8186,11454,15407,0.054,550
2019-08-25T03:29:52,42.805,6.029,CST-1368DR,8186,11459,15414,0.052,551
2019-08-25T03:32:54,42.805,6.029,CST-1368DR,8186,11460,15415,0.052,551
2019-08-25T03:35:55,42.805,6.029,CST-1368DR,8186,11460,15415,0.052,551
2019-08-25T03:38:57,42.805,6.029,CST-1368DR,8186,11457,15412,0.053,551
2019-08-25T03:41:59,42.805,6.029,CST-1368DR,8186,11459,15414,0.052,550
2019-08-25T03:45:00,42.805,6.029,CST-1368DR,8186,11460,15416,0.052,551
2019-08-25T03:48:02,42.805,6.029,CST-1368DR,8186,11463,15419,0.051,551
2019-08-25T03:51:04,42.805,6.029,CST-1368DR,8186,11459,15414,0.052,551
2019-08-25T03:54:05,42.805,6.029,CST-1368DR,8186,11460,15416,0.052,551
2019-08-25T03:57:07,42.805,6.029,CST-1368DR,8186,11460,15415,0.052,551
2019-08-25T04:00:09,42.805,6.029,CST-1368DR,8186,11460,15415,0.052,551
2019-08-25T04:03:10,42.805,6.029,CST-1368DR,8186,11461,15417,0.051,550
2019-08-25T04:06:12,42.805,6.029,CST-1368DR,8186,11460,15415,0.052,551
2019-08-25T04:09:13,42.805,6.029,CST-1368DR,8186,11459,15414,0.052,551
2019-08-25T04:12:15,42.805,6.029,CST-1368DR,8186,11459,15413,0.052,551
2019-08-25T04:15:17,42.805,6.029,CST-1368DR,8186,11458,15412,0.053,551
2019-08-25T04:18:18,42.805,6.029,CST-1368DR,8186,11460,15415,0.052,551
2019-08-25T04:21:20,42.805,6.029,CST-1368DR,8186,11461,15416,0.052,551
2019-08-25T04:24:22,42.805,6.029,CST-1368DR,8186,11460,15415,0.052,551
2019-08-25T04:27:23,42.805,6.029,CST-1368DR,8186,11461,15417,0.051,551
2019-08-25T04:30:25,42.805,6.029,CST-1368DR,8186,11460,15415,0.052,551
2019-08-25T04:33:27,42.805,6.029,CST-1368DR,8186,11457,15411,0.053,551
2019-08-25T04:36:28,42.805,6.029,CST-1368DR,8186,11460,15415,0.052,551
2019-08-25T04:39:30,42.805,6.029,CST-1368DR,8186,11459,15414,0.052,551
2019-08-25T04:42:32,42.805,6.029,CST-1368DR,8186,11459,15414,0.052,551
2019-08-25T04:45:33,42.805,6.029,CST-1368DR,8186,11459,15414,0.052,551
2019-08-25T04:48:35,42.805,6.029,CST-1368DR,8186,11456,15409,0.053,551
2019-08-25T04:51:37,42.805,6.029,CST-1368DR,8186,11460,15416,0.052,551
2019-08-25T04:54:38,42.805,6.029,CST-1368DR,8186,11458,15412,0.053,551
2019-08-25T04:57:40,42.805,6.029,CST-1368DR,8186,11459,15414,0.052,551
2019-08-25T05:00:41,42.805,6.029,CST-1368DR,8186,11458,15412,0.053,550
2019-08-25T05:03:43,42.805,6.029,CST-1368DR,8186,11457,15411,0.053,551
2019-08-25T05:06:45,42.805,6.029,CST-1368DR,8186,11459,15414,0.052,551
2019-08-25T05:09:46,42.805,6.029,CST-1368DR,8186,11457,15411,0.053,550
2019-08-25T05:12:48,42.805,6.029,CST-1368DR,8186,11459,15414,0.052,551
2019-08-25T05:15:50,42.805,6.029,CST-1368DR,8186,11460,15416,0.052,550
2019-08-25T05:18:51,42.805,6.029,CST-1368DR,8186,11461,15416,0.052,551
2019-08-25T05:21:53,42.805,6.029,CST-1368DR,8186,11461,15417,0.051,550
2019-08-25T05:24:55,42.805,6.029,CST-1368DR,8186,11460,15415,0.052,551
2019-08-25T05:27:57,42.805,6.029,CST-1368DR,8186,11460,15415,0.052,551
2019-08-25T05:30:59,42.805,6.029,CST-1368DR,8186,11461,15416,0.052,551
2019-08-25T05:34:00,42.805,6.029,CST-1368DR,8186,11458,15413,0.052,551
2019-08-25T05:37:02,42.805,6.029,CST-1368DR,8186,11456,15410,0.053,551
2019-08-25T05:40:04,42.805,6.029,CST-1368DR,8186,11457,15411,0.053,551
2019-08-25T05:43:05,42.805,6.029,CST-1368DR,8186,11457,15411,0.053,551
2019-08-25T05:46:07,42.805,6.029,CST-1368DR,8186,11457,15411,0.053,551
2019-08-25T05:49:09,42.805,6.029,CST-1368DR,8186,11458,15412,0.053,551
2019-08-25T05:52:10,42.805,6.029,CST-1368DR,8186,11460,15415,0.052,550
2019-08-25T05:55:12,42.805,6.029,CST-1368DR,8186,11452,15405,0.054,551
2019-08-25T05:58:13,42.805,6.029,CST-1368DR,8186,11455,15408,0.054,551
2019-08-25T06:01:15,42.805,6.029,CST-1368DR,8186,11459,15414,0.052,551
2019-08-25T06:04:17,42.805,6.029,CST-1368DR,8186,11457,15411,0.053,551
2019-08-25T06:07:18,42.805,6.029,CST-1368DR,8186,11457,15411,0.053,551
2019-08-25T06:10:20,42.805,6.029,CST-1368DR,8186,11459,15413,0.052,550
2019-08-25T06:13:22,42.805,6.029,CST-1368DR,8186,11457,15411,0.053,551
2019-08-25T06:16:23,42.805,6.029,CST-1368DR,8185,11449,15403,0.055,551
2019-08-25T06:19:25,42.805,6.029,CST-1368DR,8185,11457,15413,0.052,551
2019-08-25T06:22:27,42.805,6.029,CST-1368DR,8185,11458,15415,0.052,551
2019-08-25T06:25:28,42.805,6.029,CST-1368DR,8185,11457,15413,0.052,551
2019-08-25T06:28:30,42.805,6.029,CST-1368DR,8185,11460,15417,0.051,550
2019-08-25T06:31:32,42.805,6.029,CST-1368DR,8185,11457,15412,0.053,551
2019-08-25T06:34:33,42.805,6.029,CST-1368DR,8185,11457,15413,0.052,550
2019-08-25T06:37:35,42.805,6.029,CST-1368DR,8185,11459,15416,0.052,551
2019-08-25T06:40:37,42.805,6.029,CST-1368DR,8185,11456,15412,0.053,551
2019-08-25T06:43:38,42.805,6.029,CST-1368DR,8185,11457,15413,0.052,551
2019-08-25T06:46:40,42.805,6.029,CST-1368DR,8185,11457,15413,0.052,551
2019-08-25T06:49:42,42.805,6.029,CST-1368DR,8185,11458,15415,0.052,550
2019-08-25T06:52:43,42.805,6.029,CST-1368DR,8185,11458,15414,0.052,551
2019-08-25T06:55:45,42.805,6.029,CST-1368DR,8185,11456,15412,0.053,551
2019-08-25T06:58:47,42.805,6.029,CST-1368DR,8185,11456,15411,0.053,551
2019-08-25T07:01:48,42.805,6.029,CST-1368DR,8185,11456,15411,0.053,551
2019-08-25T07:04:50,42.805,6.029,CST-1368DR,8185,11456,15412,0.053,551
2019-08-25T07:07:52,42.805,6.029,CST-1368DR,8185,11450,15403,0.055,550
2019-08-25T07:10:53,42.805,6.029,CST-1368DR,8185,11455,15410,0.053,551
2019-08-25T07:13:55,42.805,6.029,CST-1368DR,8185,11455,15410,0.053,551
2019-08-25T07:16:56,42.805,6.029,CST-1368DR,8185,11456,15411,0.053,551
2019-08-25T07:19:58,42.805,6.029,CST-1368DR,8185,11450,15403,0.055,551
2019-08-25T07:23:00,42.805,6.029,CST-1368DR,8185,11448,15401,0.055,551
2019-08-25T07:26:01,42.805,6.029,CST-1368DR,8185,11453,15408,0.054,551
2019-08-25T07:29:03,42.805,6.029,CST-1368DR,8185,11455,15410,0.053,551
2019-08-25T07:32:05,42.805,6.029,CST-1368DR,8185,11455,15410,0.053,551
2019-08-25T07:35:06,42.805,6.029,CST-1368DR,8185,11458,15414,0.052,551
2019-08-25T07:38:08,42.805,6.029,CST-1368DR,8185,11457,15413,0.052,551
2019-08-25T07:41:10,42.805,6.029,CST-1368DR,8185,11455,15410,0.053,551
2019-08-25T07:44:11,42.805,6.029,CST-1368DR,8185,11457,15413,0.052,551
2019-08-25T07:47:13,42.805,6.029,CST-1368DR,8185,11454,15408,0.054,551
2019-08-25T07:50:15,42.805,6.029,CST-1368DR,8185,11455,15411,0.053,551
2019-08-25T07:53:16,42.805,6.029,CST-1368DR,8185,11456,15412,0.053,551
2019-08-25T07:56:18,42.805,6.029,CST-1368DR,8185,11449,15402,0.055,551
2019-08-25T07:59:19,42.805,6.029,CST-1368DR,8185,11458,15415,0.052,551
2019-08-25T08:02:21,42.805,6.029,CST-1368DR,8185,11458,15414,0.052,551
2019-08-25T08:05:23,42.805,6.029,CST-1368DR,8185,11456,15411,0.053,551
2019-08-25T08:08:24,42.805,6.029,CST-1368DR,8185,11453,15407,0.054,550
2019-08-25T08:11:26,42.805,6.029,CST-1368DR,8185,11455,15410,0.053,551
2019-08-25T08:14:28,42.805,6.029,CST-1368DR,8185,11456,15412,0.053,551
2019-08-25T08:17:29,42.805,6.029,CST-1368DR,8185,11457,15413,0.052,551
2019-08-25T08:20:31,42.805,6.029,CST-1368DR,8184,11455,15412,0.053,550
2019-08-25T08:23:33,42.805,6.029,CST-1368DR,8184,11456,15413,0.052,550
2019-08-25T08:26:34,42.805,6.029,CST-1368DR,8184,11448,15402,0.055,551
2019-08-25T08:29:36,42.805,6.029,CST-1368DR,8184,11456,15414,0.052,551
2019-08-25T08:32:38,42.805,6.029,CST-1368DR,8184,11456,15413,0.052,551
2019-08-25T08:35:39,42.805,6.029,CST-1368DR,8184,11457,15414,0.052,551
2019-08-25T08:38:41,42.805,6.029,CST-1368DR,8184,11456,15413,0.052,551
2019-08-25T08:41:43,42.805,6.029,CST-1368DR,8184,11456,15413,0.052,550
2019-08-25T08:44:45,42.805,6.029,CST-1368DR,8184,11451,15407,0.054,551
2019-08-25T08:47:46,42.805,6.029,CST-1368DR,8184,11455,15413,0.052,550
2019-08-25T08:50:48,42.805,6.029,CST-1368DR,8184,11455,15413,0.052,551
2019-08-25T08:53:50,42.805,6.029,CST-1368DR,8184,11453,15410,0.053,551
2019-08-25T08:56:51,42.805,6.029,CST-1368DR,8184,11455,15412,0.053,551
2019-08-25T08:59:53,42.805,6.029,CST-1368DR,8184,11454,15411,0.053,551
2019-08-25T09:02:55,42.805,6.029,CST-1368DR,8184,11457,15415,0.052,551
2019-08-25T09:05:56,42.805,6.029,CST-1368DR,8184,11457,15415,0.052,551
2019-08-25T09:08:58,42.805,6.029,CST-1368DR,8184,11455,15412,0.053,551
2019-08-25T09:12:00,42.805,6.029,CST-1368DR,8184,11454,15411,0.053,551
2019-08-25T09:15:01,42.805,6.029,CST-1368DR,8184,11454,15411,0.053,550
2019-08-25T09:18:03,42.805,6.029,CST-1368DR,8184,11455,15412,0.053,551
2019-08-25T09:21:04,42.805,6.029,CST-1368DR,8184,11454,15411,0.053,551
2019-08-25T09:24:06,42.805,6.029,CST-1368DR,8184,11455,15413,0.052,551
2019-08-25T09:27:08,42.805,6.029,CST-1368DR,8184,11454,15411,0.053,550
2019-08-25T09:30:09,42.805,6.029,CST-1368DR,8184,11452,15409,0.053,551
2019-08-25T09:33:11,42.805,6.029,CST-1368DR,8184,11456,15413,0.052,551
2019-08-25T09:36:13,42.805,6.029,CST-1368DR,8184,11455,15412,0.053,551
2019-08-25T09:39:15,42.805,6.029,CST-1368DR,8184,11448,15403,0.055,550
2019-08-25T09:42:16,42.805,6.029,CST-1368DR,8184,11456,15413,0.052,551
2019-08-25T09:45:18,42.805,6.029,CST-1368DR,8184,11456,15413,0.052,551
2019-08-25T09:48:20,42.805,6.029,CST-1368DR,8184,11457,15415,0.052,551
2019-08-25T09:51:21,42.805,6.029,CST-1368DR,8184,11456,15413,0.052,550
2019-08-25T09:54:23,42.805,6.029,CST-1368DR,8184,11456,15413,0.052,551
2019-08-25T09:57:25,42.805,6.029,CST-1368DR,8184,11456,15413,0.052,551
2019-08-25T10:00:26,42.805,6.029,CST-1368DR,8184,11456,15414,0.052,551
2019-08-25T10:03:28,42.805,6.029,CST-1368DR,8184,11458,15416,0.052,551
2019-08-25T10:06:30,42.805,6.029,CST-1368DR,8184,11456,15414,0.052,551
2019-08-25T10:09:31,42.805,6.029,CST-1368DR,8184,11457,15415,0.052,551
2019-08-25T10:12:33,42.805,6.029,CST-1368DR,8184,11456,15414,0.052,551
2019-08-25T10:15:35,42.805,6.029,CST-1368DR,8184,11455,15412,0.053,551
2019-08-25T10:18:36,42.805,6.029,CST-1368DR,8184,11456,15413,0.052,551
2019-08-25T10:21:38,42.805,6.029,CST-1368DR,8184,11455,15413,0.052,551
2019-08-25T10:24:40,42.805,6.029,CST-1368DR,8184,11453,15409,0.053,551
2019-08-25T10:27:41,42.805,6.029,CST-1368DR,8184,11456,15413,0.052,551
2019-08-25T10:30:43,42.805,6.029,CST-1368DR,8184,11455,15412,0.053,551
2019-08-25T10:33:45,42.805,6.029,CST-1368DR,8184,11455,15412,0.053,551
2019-08-25T10:36:46,42.805,6.029,CST-1368DR,8184,11452,15408,0.054,551
2019-08-25T10:39:48,42.805,6.029,CST-1368DR,8184,11455,15412,0.053,550
2019-08-25T10:42:50,42.805,6.029,CST-1368DR,8184,11456,15413,0.052,551
2019-08-25T10:45:51,42.805,6.029,CST-1368DR,8184,11453,15410,0.053,551
2019-08-25T10:48:53,42.805,6.029,CST-1368DR,8184,11455,15413,0.052,551
2019-08-25T10:51:55,42.805,6.029,CST-1368DR,8184,11455,15412,0.053,551
2019-08-25T10:54:56,42.805,6.029,CST-1368DR,8184,11453,15409,0.053,551
2019-08-25T10:57:58,42.805,6.029,CST-1368DR,8184,11453,15410,0.053,551
2019-08-25T11:01:00,42.805,6.029,CST-1368DR,8184,11456,15413,0.052,551
2019-08-25T11:04:01,42.805,6.029,CST-1368DR,8184,11455,15412,0.053,551
2019-08-25T11:07:03,42.805,6.029,CST-1368DR,8183,11454,15412,0.053,551
2019-08-25T11:10:05,42.805,6.029,CST-1368DR,8183,11453,15411,0.053,551
2019-08-25T11:13:06,42.805,6.029,CST-1368DR,8183,11454,15412,0.053,551
2019-08-25T11:16:08,42.805,6.029,CST-1368DR,8183,11449,15406,0.054,551
2019-08-25T11:19:10,42.805,6.029,CST-1368DR,8183,11452,15410,0.053,551
2019-08-25T11:22:11,42.805,6.029,CST-1368DR,8183,11454,15413,0.052,551
2019-08-25T11:25:13,42.805,6.029,CST-1368DR,8183,11455,15414,0.052,550
2019-08-25T11:28:14,42.805,6.029,CST-1368DR,8183,11452,15409,0.053,551
2019-08-25T11:31:16,42.805,6.029,CST-1368DR,8183,11454,15412,0.053,551
2019-08-25T11:34:18,42.805,6.029,CST-1368DR,8183,11450,15407,0.054,551
2019-08-25T11:37:19,42.805,6.029,CST-1368DR,8183,11455,15414,0.052,551
2019-08-25T11:40:21,42.805,6.029,CST-1368DR,8183,11452,15410,0.053,551
2019-08-25T11:43:23,42.805,6.029,CST-1368DR,8183,11452,15410,0.053,551
2019-08-25T11:46:24,42.805,6.029,CST-1368DR,8183,11455,15413,0.052,551
2019-08-25T11:49:26,42.805,6.029,CST-1368DR,8183,11452,15410,0.053,551
2019-08-25T11:52:28,42.805,6.029,CST-1368DR,8183,11454,15412,0.053,551
2019-08-25T11:55:29,42.805,6.029,CST-1368DR,8183,11454,15412,0.053,551
2019-08-25T11:58:31,42.805,6.029,CST-1368DR,8183,11455,15414,0.052,551
2019-08-25T12:01:32,42.805,6.029,CST-1368DR,8183,11453,15411,0.053,551
2019-08-25T12:04:34,42.805,6.029,CST-1368DR,8183,11456,15415,0.052,551
2019-08-25T12:07:36,42.805,6.029,CST-1368DR,8183,11454,15413,0.052,550
2019-08-25T12:10:37,42.805,6.029,CST-1368DR,8183,11455,15414,0.052,551
2019-08-25T12:13:39,42.805,6.029,CST-1368DR,8183,11455,15414,0.052,551
2019-08-25T12:16:41,42.805,6.029,CST-1368DR,8183,11450,15407,0.054,551
2019-08-25T12:19:42,42.805,6.029,CST-1368DR,8183,11455,15414,0.052,551
2019-08-25T12:22:44,42.805,6.029,CST-1368DR,8183,11452,15410,0.053,551
2019-08-25T12:25:46,42.805,6.029,CST-1368DR,8183,11454,15413,0.052,551
2019-08-25T12:28:47,42.805,6.029,CST-1368DR,8183,11452,15409,0.053,551
2019-08-25T12:31:49,42.805,6.029,CST-1368DR,8183,11454,15412,0.053,551
2019-08-25T12:34:50,42.805,6.029,CST-1368DR,8183,11453,15412,0.053,551
2019-08-25T12:37:52,42.805,6.029,CST-1368DR,8183,11453,15411,0.053,551
2019-08-25T12:40:54,42.805,6.029,CST-1368DR,8183,11453,15412,0.053,551
2019-08-25T12:43:56,42.805,6.029,CST-1368DR,8183,11451,15409,0.053,551
2019-08-25T12:46:57,42.805,6.029,CST-1368DR,8183,11451,15408,0.054,551
2019-08-25T12:49:59,42.805,6.029,CST-1368DR,8183,11453,15411,0.053,551
2019-08-25T12:53:00,42.805,6.029,CST-1368DR,8183,11454,15412,0.053,550
2019-08-25T12:56:02,42.805,6.029,CST-1368DR,8183,11454,15412,0.053,551
2019-08-25T12:59:04,42.805,6.029,CST-1368DR,8183,11455,15414,0.052,551
2019-08-25T13:02:05,42.805,6.029,CST-1368DR,8183,11453,15411,0.053,551
2019-08-25T13:05:07,42.805,6.029,CST-1368DR,8183,11454,15412,0.053,550
2019-08-25T13:08:09,42.805,6.029,CST-1368DR,8183,11453,15412,0.053,551
2019-08-25T13:11:10,42.805,6.029,CST-1368DR,8183,11452,15410,0.053,551
2019-08-25T13:14:12,42.805,6.029,CST-1368DR,8183,11452,15410,0.053,551
2019-08-25T13:17:14,42.805,6.029,CST-1368DR,8183,11452,15409,0.053,551
2019-08-25T13:20:15,42.805,6.029,CST-1368DR,8183,11452,15410,0.053,551
2019-08-25T13:23:17,42.805,6.029,CST-1368DR,8183,11454,15412,0.053,551
2019-08-25T13:26:19,42.805,6.029,CST-1368DR,8183,11452,15410,0.053,550
2019-08-25T13:29:20,42.805,6.029,CST-1368DR,8182,11434,15387,0.059,551
2019-08-25T13:32:22,42.805,6.029,CST-1368DR,8182,11452,15412,0.053,550
2019-08-25T13:35:24,42.805,6.029,CST-1368DR,8183,11453,15411,0.053,551
2019-08-25T13:38:25,42.805,6.029,CST-1368DR,8183,11453,15411,0.053,551
2019-08-25T13:41:27,42.805,6.029,CST-1368DR,8182,11454,15414,0.052,551
2019-08-25T13:44:29,42.805,6.029,CST-1368DR,8182,11454,15414,0.052,551
2019-08-25T13:47:30,42.805,6.029,CST-1368DR,8182,11452,15412,0.053,551
2019-08-25T13:50:32,42.805,6.029,CST-1368DR,8182,11453,15413,0.052,551
2019-08-25T13:53:33,42.805,6.029,CST-1368DR,8182,11452,15412,0.053,551
2019-08-25T13:56:35,42.805,6.029,CST-1368DR,8182,11453,15413,0.052,551
2019-08-25T13:59:37,42.805,6.029,CST-1368DR,8182,11453,15412,0.053,551
2019-08-25T14:02:38,42.805,6.029,CST-1368DR,8182,11453,15413,0.052,551
2019-08-25T14:05:40,42.805,6.029,CST-1368DR,8182,11452,15411,0.053,551
2019-08-25T14:08:42,42.805,6.029,CST-1368DR,8182,11452,15412,0.053,551
2019-08-25T14:11:43,42.805,6.029,CST-1368DR,8182,11452,15411,0.053,551
2019-08-25T14:14:45,42.805,6.029,CST-1368DR,8182,11453,15412,0.053,551
2019-08-25T14:17:47,42.805,6.029,CST-1368DR,8182,11452,15412,0.053,551
2019-08-25T14:20:48,42.805,6.029,CST-1368DR,8182,11452,15411,0.053,551
2019-08-25T14:23:50,42.805,6.029,CST-1368DR,8182,11447,15405,0.054,551
2019-08-25T14:26:52,42.805,6.029,CST-1368DR,8182,11452,15412,0.053,551
2019-08-25T14:29:53,42.805,6.029,CST-1368DR,8182,11450,15408,0.054,551
2019-08-25T14:32:55,42.805,6.029,CST-1368DR,8182,11452,15411,0.053,550
2019-08-25T14:35:57,42.805,6.029,CST-1368DR,8182,11453,15412,0.053,551
2019-08-25T14:38:58,42.805,6.029,CST-1368DR,8182,11450,15409,0.053,551
2019-08-25T14:42:00,42.805,6.029,CST-1368DR,8182,11450,15409,0.053,551
2019-08-25T14:45:02,42.805,6.029,CST-1368DR,8182,11450,15409,0.053,551
2019-08-25T14:48:03,42.805,6.029,CST-1368DR,8182,11445,15402,0.055,551
2019-08-25T14:51:05,42.805,6.029,CST-1368DR,8182,11452,15412,0.053,551
2019-08-25T14:54:06,42.805,6.029,CST-1368DR,8182,11449,15407,0.054,551
2019-08-25T14:57:08,42.805,6.029,CST-1368DR,8182,11451,15411,0.053,551
2019-08-25T15:00:10,42.805,6.029,CST-1368DR,8182,11450,15409,0.053,551
2019-08-25T15:03:11,42.805,6.029,CST-1368DR,8182,11447,15405,0.054,551
2019-08-25T15:06:13,42.805,6.029,CST-1368DR,8182,11451,15410,0.053,551
2019-08-25T15:09:15,42.805,6.029,CST-1368DR,8182,11450,15408,0.054,551
2019-08-25T15:12:16,42.805,6.029,CST-1368DR,8182,11452,15412,0.053,551
2019-08-25T15:15:18,42.805,6.029,CST-1368DR,8182,11449,15407,0.054,551
2019-08-25T15:18:20,42.805,6.029,CST-1368DR,8182,11450,15408,0.054,551
2019-08-25T15:21:21,42.805,6.029,CST-1368DR,8182,11450,15409,0.053,551
2019-08-25T15:24:23,42.805,6.029,CST-1368DR,8181,11450,15410,0.053,551
2019-08-25T15:27:25,42.805,6.029,CST-1368DR,8181,11445,15404,0.055,551
2019-08-25T15:30:26,42.805,6.029,CST-1368DR,8181,11451,15412,0.053,550
2019-08-25T15:33:28,42.805,6.029,CST-1368DR,8181,11448,15408,0.054,550
2019-08-25T15:36:29,42.805,6.029,CST-1368DR,8181,11449,15409,0.053,551
2019-08-25T15:39:31,42.805,6.029,CST-1368DR,8181,11450,15411,0.053,550
2019-08-25T15:42:33,42.805,6.029,CST-1368DR,8181,11450,15410,0.053,551
2019-08-25T15:45:34,42.805,6.029,CST-1368DR,8181,11449,15409,0.053,551
2019-08-25T15:48:36,42.805,6.029,CST-1368DR,8181,11450,15410,0.053,551
2019-08-25T15:51:38,42.805,6.029,CST-1368DR,8181,11449,15409,0.053,551
2019-08-25T15:54:40,42.805,6.029,CST-1368DR,8181,11448,15408,0.054,551
2019-08-25T15:57:41,42.805,6.029,CST-1368DR,8181,11448,15408,0.054,551
2019-08-25T16:00:43,42.805,6.029,CST-1368DR,8181,11450,15411,0.053,551
2019-08-25T16:03:44,42.805,6.029,CST-1368DR,8181,11450,15410,0.053,551
2019-08-25T16:06:46,42.805,6.029,CST-1368DR,8181,11450,15410,0.053,551
2019-08-25T16:09:48,42.805,6.029,CST-1368DR,8181,11450,15410,0.053,551
2019-08-25T16:12:49,42.805,6.029,CST-1368DR,8181,11447,15406,0.054,551
2019-08-25T16:15:51,42.805,6.029,CST-1368DR,8181,11449,15409,0.053,551
2019-08-25T16:18:53,42.805,6.029,CST-1368DR,8181,11450,15411,0.053,551
2019-08-25T16:21:54,42.805,6.029,CST-1368DR,8181,11448,15408,0.054,551
2019-08-25T16:24:56,42.805,6.029,CST-1368DR,8181,11448,15408,0.054,551
2019-08-25T16:27:58,42.805,6.029,CST-1368DR,8181,11450,15410,0.053,551
2019-08-25T16:31:00,42.805,6.029,CST-1368DR,8181,11450,15410,0.053,551
2019-08-25T16:34:01,42.805,6.029,CST-1368DR,8181,11446,15405,0.054,551
2019-08-25T16:37:03,42.805,6.029,CST-1368DR,8181,11449,15409,0.053,551